Time,TemperatureF,DewpointF,PressureIn,WindDirection,WindDirectionDegrees,WindSpeedMPH,WindSpeedGustMPH,Humidity,HourlyPrecipIn,Conditions,Clouds,dailyrainin,SoftwareType,DateUTC
2013-02-08 00:07:00,25.3,20.0,30.25,NE,37,3.0,-999.0,79,-99.99,,,0.00,weatherlink.com 1.10,2013-02-08 06:07:00,
2013-02-08 00:22:00,25.3,20.0,30.26,NE,55,0.0,-999.0,79,-99.99,,,0.00,weatherlink.com 1.10,2013-02-08 06:22:00,
2013-02-08 00:37:00,25.3,20.0,30.27,NNE,22,2.0,-999.0,79,-99.99,,,0.00,weatherlink.com 1.10,2013-02-08 06:37:00,
2013-02-08 00:52:00,25.1,19.0,30.27,NNE,27,0.0,-999.0,79,-99.99,,,0.00,weatherlink.com 1.10,2013-02-08 06:52:00,
2013-02-08 01:07:00,25.1,19.0,30.28,NNE,31,0.0,-999.0,79,-99.99,,,0.00,weatherlink.com 1.10,2013-02-08 07:07:00,
2013-02-08 01:22:00,25.0,19.0,30.28,NE,40,0.0,-999.0,79,-99.99,,,0.00,weatherlink.com 1.10,2013-02-08 07:22:00,
2013-02-08 01:37:00,25.0,19.0,30.28,NE,34,0.0,-999.0,79,-99.99,,,0.00,weatherlink.com 1.10,2013-02-08 07:37:00,
2013-02-08 01:52:00,24.8,19.0,30.29,NNE,30,1.0,-999.0,79,-99.99,,,0.00,weatherlink.com 1.10,2013-02-08 07:52:00,
2013-02-08 02:07:00,24.8,19.0,30.30,NNE,30,2.0,-999.0,79,-99.99,,,0.00,weatherlink.com 1.10,2013-02-08 08:07:00,
2013-02-08 02:22:00,24.8,19.0,30.30,NNE,30,0.0,-999.0,79,-99.99,,,0.00,weatherlink.com 1.10,2013-02-08 08:22:00,
2013-02-08 02:37:00,24.7,19.0,30.29,NNE,31,0.0,-999.0,79,-99.99,,,0.00,weatherlink.com 1.10,2013-02-08 08:37:00,
2013-02-08 02:52:00,24.7,19.0,30.30,NE,44,0.0,-999.0,78,-99.99,,,0.00,weatherlink.com 1.10,2013-02-08 08:52:00,
2013-02-08 03:07:00,24.7,18.0,30.29,East,91,2.0,-999.0,77,-99.99,,,0.00,weatherlink.com 1.10,2013-02-08 09:07:00,
2013-02-08 03:22:00,24.5,18.0,30.28,East,90,2.0,-999.0,76,-99.99,,,0.00,weatherlink.com 1.10,2013-02-08 09:22:00,
2013-02-08 03:37:00,24.2,17.0,30.28,ENE,60,2.0,-999.0,74,-99.99,,,0.00,weatherlink.com 1.10,2013-02-08 09:37:00,
2013-02-08 03:52:00,24.2,16.0,30.29,ENE,61,0.0,-999.0,72,-99.99,,,0.00,weatherlink.com 1.10,2013-02-08 09:52:00,
2013-02-08 04:07:00,23.9,16.0,30.30,ENE,61,0.0,-999.0,72,-99.99,,,0.00,weatherlink.com 1.10,2013-02-08 10:07:00,
2013-02-08 04:22:00,23.8,16.0,30.30,ENE,61,0.0,-999.0,72,-99.99,,,0.00,weatherlink.com 1.10,2013-02-08 10:22:00,
2013-02-08 04:37:00,23.5,15.0,30.30,NE,37,0.0,-999.0,71,-99.99,,,0.00,weatherlink.com 1.10,2013-02-08 10:37:00,
2013-02-08 04:52:00,23.0,14.0,30.31,ENE,66,1.0,-999.0,69,-99.99,,,0.00,weatherlink.com 1.10,2013-02-08 10:52:00,
2013-02-08 05:07:00,22.9,14.0,30.32,NE,39,2.0,-999.0,69,-99.99,,,0.00,weatherlink.com 1.10,2013-02-08 11:07:00,
2013-02-08 05:22:00,22.7,14.0,30.32,NE,37,2.0,-999.0,70,-99.99,,,0.00,weatherlink.com 1.10,2013-02-08 11:22:00,
2013-02-08 05:37:00,22.5,14.0,30.33,NE,37,1.0,-999.0,70,-99.99,,,0.00,weatherlink.com 1.10,2013-02-08 11:37:00,
2013-02-08 05:52:00,22.4,14.0,30.32,NNE,32,2.0,-999.0,71,-99.99,,,0.00,weatherlink.com 1.10,2013-02-08 11:52:00,
2013-02-08 06:07:00,22.1,14.0,30.33,NNE,33,0.0,-999.0,72,-99.99,,,0.00,weatherlink.com 1.10,2013-02-08 12:07:00,
2013-02-08 06:22:00,21.8,14.0,30.34,NNE,33,1.0,-999.0,72,-99.99,,,0.00,weatherlink.com 1.10,2013-02-08 12:22:00,
2013-02-08 06:37:00,21.6,14.0,30.34,NNE,33,0.0,-999.0,73,-99.99,,,0.00,weatherlink.com 1.10,2013-02-08 12:37:00,
2013-02-08 06:52:00,21.6,15.0,30.35,NNE,33,0.0,-999.0,74,-99.99,,,0.00,weatherlink.com 1.10,2013-02-08 12:52:00,
2013-02-08 07:07:00,21.4,14.0,30.35,NNE,33,0.0,-999.0,74,-99.99,,,0.00,weatherlink.com 1.10,2013-02-08 13:07:00,
2013-02-08 07:22:00,21.3,15.0,30.35,NNE,33,0.0,-999.0,75,-99.99,,,0.00,weatherlink.com 1.10,2013-02-08 13:22:00,
2013-02-08 07:37:00,21.3,15.0,30.35,NNE,33,0.0,-999.0,76,-99.99,,,0.00,weatherlink.com 1.10,2013-02-08 13:37:00,
2013-02-08 07:52:00,21.3,15.0,30.36,NNE,33,0.0,-999.0,76,-99.99,,,0.00,weatherlink.com 1.10,2013-02-08 13:52:00,
2013-02-08 08:07:00,21.4,15.0,30.35,NNE,33,0.0,-999.0,77,-99.99,,,0.00,weatherlink.com 1.10,2013-02-08 14:07:00,
2013-02-08 08:22:00,21.4,15.0,30.35,ENE,65,0.0,-999.0,77,-99.99,,,0.00,weatherlink.com 1.10,2013-02-08 14:22:00,
2013-02-08 08:37:00,21.6,16.0,30.36,ENE,65,0.0,-999.0,78,-99.99,,,0.00,weatherlink.com 1.10,2013-02-08 14:37:00,
2013-02-08 08:52:00,21.8,16.0,30.37,ENE,65,0.0,-999.0,78,-99.99,,,0.00,weatherlink.com 1.10,2013-02-08 14:52:00,
2013-02-08 09:07:00,22.2,16.0,30.37,ENE,65,0.0,-999.0,77,-99.99,,,0.00,weatherlink.com 1.10,2013-02-08 15:07:00,
2013-02-08 09:22:00,22.4,16.0,30.37,East,99,2.0,-999.0,77,-99.99,,,0.00,weatherlink.com 1.10,2013-02-08 15:22:00,
2013-02-08 09:37:00,22.7,16.0,30.37,East,99,0.0,-999.0,76,-99.99,,,0.00,weatherlink.com 1.10,2013-02-08 15:37:00,
2013-02-08 09:52:00,23.0,17.0,30.37,East,99,2.0,-999.0,76,-99.99,,,0.00,weatherlink.com 1.10,2013-02-08 15:52:00,
2013-02-08 10:07:00,23.3,17.0,30.38,ESE,110,5.0,-999.0,75,-99.99,,,0.00,weatherlink.com 1.10,2013-02-08 16:07:00,
2013-02-08 10:22:00,23.3,16.0,30.38,ESE,108,5.0,-999.0,74,-99.99,,,0.00,weatherlink.com 1.10,2013-02-08 16:22:00,
2013-02-08 10:37:00,23.5,16.0,30.38,ESE,108,2.0,-999.0,73,-99.99,,,0.00,weatherlink.com 1.10,2013-02-08 16:37:00,
2013-02-08 10:52:00,23.5,16.0,30.38,ESE,105,4.0,-999.0,74,-99.99,,,0.00,weatherlink.com 1.10,2013-02-08 16:52:00,
2013-02-08 11:07:00,23.6,16.0,30.38,ESE,107,4.0,-999.0,74,-99.99,,,0.00,weatherlink.com 1.10,2013-02-08 17:07:00,
2013-02-08 11:22:00,23.8,16.0,30.38,ESE,117,4.0,-999.0,73,-99.99,,,0.00,weatherlink.com 1.10,2013-02-08 17:22:00,
2013-02-08 11:37:00,23.9,16.0,30.38,SSE,162,2.0,-999.0,73,-99.99,,,0.00,weatherlink.com 1.10,2013-02-08 17:37:00,
2013-02-08 11:52:00,23.8,15.0,30.38,ESE,113,4.0,-999.0,69,-99.99,,,0.00,weatherlink.com 1.10,2013-02-08 17:52:00,
2013-02-08 12:06:00,23.8,15.0,30.38,SE,131,3.0,-999.0,68,-99.99,,,0.00,weatherlink.com 1.10,2013-02-08 18:06:00,
2013-02-08 12:21:00,23.9,15.0,30.37,SE,139,0.0,-999.0,69,-99.99,,,0.00,weatherlink.com 1.10,2013-02-08 18:21:00,
2013-02-08 12:36:00,23.8,15.0,30.37,ESE,118,3.0,-999.0,69,-99.99,,,0.00,weatherlink.com 1.10,2013-02-08 18:36:00,
2013-02-08 12:51:00,24.4,16.0,30.37,SE,131,3.0,-999.0,70,-99.99,,,0.00,weatherlink.com 1.10,2013-02-08 18:51:00,
2013-02-08 13:06:00,24.5,16.0,30.36,SSE,156,1.0,-999.0,70,-99.99,,,0.00,weatherlink.com 1.10,2013-02-08 19:06:00,
2013-02-08 13:21:00,24.8,16.0,30.36,ESE,123,0.0,-999.0,68,-99.99,,,0.00,weatherlink.com 1.10,2013-02-08 19:21:00,
2013-02-08 13:36:00,24.5,16.0,30.35,ESE,113,3.0,-999.0,69,-99.99,,,0.00,weatherlink.com 1.10,2013-02-08 19:36:00,
2013-02-08 13:51:00,24.5,16.0,30.34,SSE,148,3.0,-999.0,69,-99.99,,,0.00,weatherlink.com 1.10,2013-02-08 19:51:00,
2013-02-08 14:06:00,24.2,16.0,30.33,ESE,119,5.0,-999.0,70,-99.99,,,0.00,weatherlink.com 1.10,2013-02-08 20:06:00,
2013-02-08 14:21:00,24.4,16.0,30.33,SE,146,0.0,-999.0,69,-99.99,,,0.00,weatherlink.com 1.10,2013-02-08 20:21:00,
2013-02-08 14:36:00,24.4,15.0,30.33,SE,139,4.0,-999.0,68,-99.99,,,0.00,weatherlink.com 1.10,2013-02-08 20:36:00,
2013-02-08 14:51:00,24.7,15.0,30.33,South,186,0.0,-999.0,68,-99.99,,,0.00,weatherlink.com 1.10,2013-02-08 20:51:00,
2013-02-08 15:06:00,24.7,15.0,30.33,SSW,192,2.0,-999.0,68,-99.99,,,0.00,weatherlink.com 1.10,2013-02-08 21:06:00,
2013-02-08 15:21:00,24.4,16.0,30.33,South,169,0.0,-999.0,69,-99.99,,,0.00,weatherlink.com 1.10,2013-02-08 21:21:00,
2013-02-08 15:36:00,24.1,15.0,30.33,SSW,202,2.0,-999.0,69,-99.99,,,0.00,weatherlink.com 1.10,2013-02-08 21:36:00,
2013-02-08 15:51:00,24.2,15.0,30.32,SE,146,5.0,-999.0,68,-99.99,,,0.00,weatherlink.com 1.10,2013-02-08 21:51:00,
2013-02-08 16:06:00,23.5,15.0,30.32,SSE,158,1.0,-999.0,70,-99.99,,,0.00,weatherlink.com 1.10,2013-02-08 22:06:00,
2013-02-08 16:22:00,23.3,15.0,30.32,SE,139,2.0,-999.0,71,-99.99,,,0.00,weatherlink.com 1.10,2013-02-08 22:22:00,
2013-02-08 16:37:00,23.3,16.0,30.32,ESE,117,5.0,-999.0,72,-99.99,,,0.00,weatherlink.com 1.10,2013-02-08 22:37:00,
2013-02-08 16:52:00,23.3,16.0,30.30,SE,141,2.0,-999.0,72,-99.99,,,0.00,weatherlink.com 1.10,2013-02-08 22:52:00,
2013-02-08 17:07:00,23.2,16.0,30.30,ESE,113,5.0,-999.0,73,-99.99,,,0.00,weatherlink.com 1.10,2013-02-08 23:07:00,
2013-02-08 17:22:00,22.9,16.0,30.30,ESE,110,4.0,-999.0,74,-99.99,,,0.00,weatherlink.com 1.10,2013-02-08 23:22:00,
2013-02-08 17:37:00,22.7,16.0,30.29,SE,125,4.0,-999.0,74,-99.99,,,0.00,weatherlink.com 1.10,2013-02-08 23:37:00,
2013-02-08 17:52:00,22.4,16.0,30.29,ESE,120,0.0,-999.0,75,-99.99,,,0.00,weatherlink.com 1.10,2013-02-08 23:52:00,
2013-02-08 18:07:00,22.7,16.0,30.29,ESE,113,3.0,-999.0,76,-99.99,,,0.00,weatherlink.com 1.10,2013-02-09 00:07:00,
2013-02-08 18:37:00,22.7,17.0,30.29,SSE,155,3.0,-999.0,77,-99.99,,,0.00,weatherlink.com 1.10,2013-02-09 00:37:00,
2013-02-08 18:52:00,22.9,17.0,30.28,SE,129,2.0,-999.0,77,-99.99,,,0.00,weatherlink.com 1.10,2013-02-09 00:52:00,
2013-02-08 19:07:00,23.0,17.0,30.28,SSE,155,3.0,-999.0,78,-99.99,,,0.00,weatherlink.com 1.10,2013-02-09 01:07:00,
2013-02-08 19:22:00,23.2,17.0,30.28,SE,146,3.0,-999.0,78,-99.99,,,0.00,weatherlink.com 1.10,2013-02-09 01:22:00,
2013-02-08 19:37:00,23.2,18.0,30.28,SSE,152,0.0,-999.0,79,-99.99,,,0.00,weatherlink.com 1.10,2013-02-09 01:37:00,
2013-02-08 19:52:00,23.3,18.0,30.28,SSE,158,1.0,-999.0,79,-99.99,,,0.00,weatherlink.com 1.10,2013-02-09 01:52:00,
2013-02-08 20:06:00,23.3,18.0,30.27,SE,136,0.0,-999.0,79,-99.99,,,0.00,weatherlink.com 1.10,2013-02-09 02:06:00,
2013-02-08 20:36:00,23.6,18.0,30.26,SE,146,3.0,-999.0,80,-99.99,,,0.00,weatherlink.com 1.10,2013-02-09 02:36:00,
2013-02-08 20:51:00,23.8,19.0,30.25,ESE,123,3.0,-999.0,80,-99.99,,,0.00,weatherlink.com 1.10,2013-02-09 02:51:00,
2013-02-08 21:06:00,24.1,19.0,30.25,South,169,2.0,-999.0,80,-99.99,,,0.00,weatherlink.com 1.10,2013-02-09 03:06:00,
2013-02-08 21:21:00,24.2,19.0,30.25,SSE,159,1.0,-999.0,80,-99.99,,,0.00,weatherlink.com 1.10,2013-02-09 03:21:00,
2013-02-08 21:36:00,24.5,19.0,30.24,SSE,160,0.0,-999.0,80,-99.99,,,0.00,weatherlink.com 1.10,2013-02-09 03:36:00,
2013-02-08 21:51:00,24.7,19.0,30.24,SSE,153,0.0,-999.0,80,-99.99,,,0.00,weatherlink.com 1.10,2013-02-09 03:51:00,
2013-02-08 22:06:00,24.8,19.0,30.25,South,185,6.0,-999.0,80,-99.99,,,0.00,weatherlink.com 1.10,2013-02-09 04:06:00,
2013-02-08 22:21:00,25.1,20.0,30.24,South,169,0.0,-999.0,80,-99.99,,,0.00,weatherlink.com 1.10,2013-02-09 04:21:00,
2013-02-08 22:36:00,25.3,20.0,30.24,SE,141,1.0,-999.0,80,-99.99,,,0.00,weatherlink.com 1.10,2013-02-09 04:36:00,
2013-02-08 22:51:00,25.6,20.0,30.24,South,178,3.0,-999.0,80,-99.99,,,0.00,weatherlink.com 1.10,2013-02-09 04:51:00,
2013-02-08 23:06:00,25.6,20.0,30.23,SSE,158,3.0,-999.0,80,-99.99,,,0.00,weatherlink.com 1.10,2013-02-09 05:06:00,
2013-02-08 23:21:00,25.6,20.0,30.23,South,188,4.0,-999.0,80,-99.99,,,0.00,weatherlink.com 1.10,2013-02-09 05:21:00,
2013-02-08 23:36:00,25.6,20.0,30.23,SSE,162,0.0,-999.0,80,-99.99,,,0.00,weatherlink.com 1.10,2013-02-09 05:36:00,
2013-02-08 23:51:00,25.6,20.0,30.23,South,177,1.0,-999.0,80,-99.99,,,0.00,weatherlink.com 1.10,2013-02-09 05:51:00,